Wind_Speed
6 6 5 4 5 5 5 6 6 6 7 7 7 8 8 8 8 9 8 8 8 8 7 7 6 6 5 5 4 3 2 2 2 2 2 2 1 1 2 2 3 4 5
7 7 7 6 7 7 7 7 7 7 8 9 9 9 9 9 9 10 10 9 9 9 9 8 8 7 7 6 5 4 3 3 3 2 2 2 1 1 1 2 2 3 4
9 9 8 8 8 8 8 9 9 9 9 10 10 11 11 11 11 11 11 11 11 10 10 10 9 9 8 7 6 5 4 4 3 3 3 2 2 1 1 1 1 2 3
11 11 11 10 10 9 9 10 10 10 10 11 11 11 11 12 12 12 12 12 12 12 12 12 11 10 9 8 7 6 5 5 4 4 3 3 2 2 2 1 1 1 2
12 12 13 12 11 11 11 11 11 11 12 12 12 12 12 13 13 13 13 13 13 14 13 13 12 12 11 9 8 7 6 6 5 5 4 4 4 4 3 2 2 2 2
13 13 14 13 13 13 12 12 13 13 13 13 13 13 14 14 14 14 14 14 14 15 14 14 13 12 12 11 10 9 8 7 6 6 6 6 5 5 5 4 3 3 2
14 14 14 14 13 13 14 14 14 14 14 14 14 14 14 15 15 15 15 15 15 15 16 16 15 14 13 12 11 10 9 8 8 7 8 8 8 7 7 6 5 4 3
15 14 15 15 14 14 15 15 15 15 15 15 15 15 15 16 16 16 16 16 16 17 16 17 17 16 15 14 13 12 11 10 9 9 9 9 9 9 8 8 7 6 5
16 15 15 15 15 15 16 16 16 16 16 16 15 16 16 16 16 16 17 17 17 18 17 17 17 17 16 15 15 14 13 12 11 11 11 11 10 10 10 9 9 8 7
18 16 16 16 16 15 16 16 16 16 16 16 16 16 17 17 17 17 18 18 18 18 18 18 18 18 18 17 16 16 15 14 13 13 13 12 12 12 11 11 11 10 9
17 16 15 16 16 16 16 17 17 17 17 17 17 17 18 18 18 18 18 18 19 20 19 19 19 19 19 19 18 18 17 16 15 15 15 14 14 14 14 14 13 12 11
17 16 17 16 16 16 16 17 17 17 17 17 18 18 19 19 19 20 19 19 20 20 21 21 21 21 21 20 20 19 19 18 17 16 16 16 16 16 15 15 15 14 14
17 16 16 17 17 17 17 18 17 17 17 18 18 18 19 20 20 21 20 20 20 21 21 21 21 21 21 21 21 21 21 19 18 18 18 18 17 17 17 17 16 16 15
17 14 13 14 16 17 16 17 17 18 19 19 20 20 20 21 22 22 23 22 20 21 20 20 21 21 21 21 21 21 21 21 20 20 20 19 19 18 18 18 18 18 17
16 14 15 14 14 16 17 18 18 19 18 19 20 20 21 21 22 23 23 23 21 21 21 21 21 22 22 22 22 22 22 22 21 21 21 20 20 20 19 19 19 19 19
18 15 14 14 13 14 14 14 16 18 18 20 20 20 20 21 22 22 22 23 22 22 22 22 22 22 23 22 23 23 22 22 22 22 22 21 22 21 21 21 20 20 20
20 16 14 14 15 14 14 15 16 17 18 20 21 21 22 23 23 23 22 22 22 22 23 23 23 23 23 23 23 23 23 22 22 23 23 23 23 23 22 22 22 22 21
17 14 15 15 16 15 15 16 18 19 20 21 22 23 23 23 23 23 23 23 24 24 23 24 25 25 25 24 23 24 24 24 25 24 24 23 23 24 24 23 23 23 23
16 15 16 16 16 17 17 19 20 21 22 21 21 23 24 24 24 23 24 24 25 25 25 25 26 26 26 25 25 24 24 25 26 25 24 24 23 24 25 25 24 24 24
16 15 15 16 17 18 20 21 21 22 23 23 22 23 24 25 25 24 25 25 26 26 26 26 26 27 27 27 27 27 27 26 27 27 26 25 24 24 25 25 25 24 24
16 16 18 18 18 20 21 22 23 23 23 23 24 24 25 25 25 25 25 26 27 28 27 28 28 28 27 28 28 28 28 28 27 28 29 28 27 26 26 26 25 26 26
18 18 18 18 19 21 22 23 24 24 25 25 25 25 25 26 26 26 26 26 27 28 28 28 29 29 29 29 29 29 28 28 28 29 29 30 29 28 27 27 27 27 27
18 19 20 20 21 22 23 24 25 25 26 26 26 26 27 27 27 27 27 28 28 28 28 28 28 28 28 29 29 28 28 27 29 29 29 29 30 30 29 28 28 28 28
19 20 21 21 22 23 24 25 26 27 27 27 28 28 28 28 28 28 28 28 28 29 29 29 28 28 28 28 28 27 27 27 28 28 28 29 29 29 28 28 29 30 29
20 21 21 22 23 24 24 25 26 27 27 28 28 29 29 28 28 28 29 29 29 28 29 29 28 28 28 28 28 28 28 27 27 28 28 28 28 28 28 29 29 29 30
20 21 21 22 24 25 25 26 27 28 28 28 28 28 28 27 27 28 29 30 29 29 28 28 28 27 27 27 27 27 27 27 26 27 27 28 28 28 28 28 29 29 29
Wind_Direction
289 284 274 264 251 248 244 242 243 249 256 262 265 269 274 277 278 281 279 281 283 287 290 290 290 289 288 287 278 265 251 241 233 207 192 184 171 143 124 113 97 88 90
281 285 277 268 261 255 249 249 251 254 259 262 264 269 271 273 275 278 277 277 280 284 286 287 286 287 286 285 279 269 258 248 243 228 220 212 197 164 125 109 95 91 92
277 280 275 267 262 257 254 254 255 255 258 260 262 267 268 270 273 276 276 275 276 279 281 283 282 281 282 282 279 271 262 255 254 245 239 237 229 221 165 128 108 105 101
270 271 267 265 261 257 254 254 255 257 258 260 262 265 266 268 271 274 276 275 275 276 277 279 279 279 279 280 277 273 264 258 260 258 247 247 245 237 221 199 160 137 124
266 267 265 264 261 257 255 253 253 254 256 260 262 264 265 266 268 271 273 274 274 276 276 276 277 277 276 276 276 274 268 261 260 258 252 253 249 238 230 220 207 186 170
261 262 264 261 260 256 254 253 251 252 254 256 259 263 264 263 264 267 270 271 272 272 272 272 273 273 273 274 274 274 269 262 259 258 254 250 244 239 232 227 221 209 194
254 257 261 261 259 255 253 252 252 252 252 254 256 259 261 263 262 263 267 268 269 269 269 269 270 269 269 270 270 269 266 261 257 258 257 251 245 242 237 235 231 228 218
249 250 255 257 256 253 252 251 252 251 252 252 254 258 259 260 261 263 265 265 266 267 267 267 269 266 265 266 267 267 266 263 258 258 256 253 248 242 240 239 237 237 235
244 247 253 252 253 254 253 253 254 254 254 254 256 258 260 261 262 265 265 263 264 265 265 265 266 265 264 264 265 266 266 264 259 257 255 256 253 248 247 244 240 240 240
243 244 249 250 251 253 253 254 255 255 255 256 258 259 260 261 262 263 265 265 264 264 264 264 263 263 263 262 264 264 264 264 261 258 256 256 253 252 250 246 245 243 242
244 244 248 251 250 252 252 252 252 254 254 256 258 260 260 260 262 263 264 265 264 264 263 262 261 261 261 261 261 262 262 263 262 258 256 256 254 253 251 250 247 244 245
244 243 244 248 245 247 250 252 253 253 255 258 259 260 261 262 264 264 265 265 265 264 262 261 261 261 260 259 259 260 261 262 260 257 254 254 252 253 253 252 246 245 246
248 243 249 240 242 250 253 252 253 257 259 259 260 262 263 263 264 265 266 267 266 266 264 261 263 261 259 259 259 260 259 258 258 256 254 251 252 253 253 251 248 247 248
254 256 256 257 254 255 254 254 256 260 261 262 263 264 265 264 263 265 266 266 267 267 266 265 265 263 261 259 259 262 261 259 257 255 254 252 253 254 251 249 249 248 247
258 259 263 257 255 255 254 258 260 261 265 265 266 267 268 265 264 265 267 264 266 267 268 266 263 264 265 262 262 262 260 256 255 256 255 254 254 254 254 252 251 249 247
261 263 258 260 261 266 260 264 266 264 264 266 267 269 270 268 265 269 268 267 266 267 269 269 264 265 264 264 263 264 261 255 256 258 257 253 255 255 254 253 252 252 251
269 268 262 268 273 275 268 270 272 270 268 268 268 269 268 268 268 270 269 269 269 268 269 269 269 270 266 265 264 263 260 258 257 258 258 256 255 253 253 252 254 252 254
276 271 273 272 276 276 278 280 280 278 274 269 269 267 268 271 269 270 268 270 270 268 267 267 267 268 269 268 268 266 260 258 258 258 257 256 255 253 251 252 254 253 256
284 281 274 274 280 282 283 283 280 278 275 277 276 272 272 273 273 275 270 270 271 268 267 266 266 268 268 269 270 267 264 260 257 256 256 255 256 256 254 252 256 254 256
284 282 278 274 280 282 282 282 282 282 279 280 280 278 277 276 274 274 272 270 273 271 269 268 268 267 267 268 268 268 265 262 258 256 256 256 256 255 256 256 256 257 256
285 286 282 277 280 281 282 283 282 283 283 280 279 279 278 277 274 273 273 273 273 272 272 270 269 269 268 268 268 267 265 264 261 258 256 257 257 257 256 255 256 257 255
285 286 286 283 284 283 283 283 284 283 283 282 280 279 279 276 274 274 273 274 274 273 271 270 270 269 268 268 268 267 265 263 262 259 255 255 256 258 256 255 257 256 255
284 285 286 285 284 285 285 284 284 284 283 282 282 282 281 280 277 276 275 275 274 273 272 270 270 267 266 267 268 268 264 262 262 260 257 256 255 257 257 256 257 256 257
286 286 287 286 286 287 286 285 285 284 284 282 282 282 282 280 279 278 277 276 276 274 271 270 269 266 266 265 265 265 264 263 262 260 260 259 256 255 255 255 254 255 256
286 286 287 288 288 288 288 286 286 285 285 284 283 284 282 280 279 278 276 276 275 273 271 269 267 265 265 265 265 264 264 263 261 259 260 259 257 255 254 255 255 255 254
289 289 289 290 290 289 288 287 287 287 286 285 285 283 282 281 280 279 277 276 275 273 270 268 266 264 264 265 264 264 264 263 262 260 260 258 257 257 257 257 256 255 254
Height
5909 5909 5909 5909 5909 5910 5910 5910 5911 5911 5911 5911 5911 5911 5911 5911 5911 5911 5911 5911 5910 5910 5909 5909 5908 5907 5906 5905 5905 5904 5903 5903 5903 5902 5901 5901 5900 5899 5899 5898 5897 5896 5896
5908 5908 5908 5908 5909 5909 5909 5909 5910 5910 5910 5910 5910 5910 5910 5910 5910 5910 5910 5910 5909 5909 5909 5908 5907 5907 5906 5905 5904 5904 5903 5903 5903 5902 5902 5901 5900 5899 5899 5898 5897 5897 5896
5907 5907 5907 5907 5908 5908 5908 5908 5908 5908 5909 5909 5909 5909 5909 5909 5909 5909 5909 5908 5908 5908 5908 5907 5907 5906 5905 5905 5904 5903 5903 5902 5902 5902 5901 5900 5900 5899 5899 5898 5898 5897 5897
5905 5905 5906 5906 5906 5906 5906 5906 5907 5907 5907 5907 5907 5907 5907 5907 5907 5907 5907 5907 5907 5907 5906 5906 5905 5905 5904 5904 5903 5903 5902 5902 5901 5901 5900 5900 5899 5899 5898 5898 5898 5898 5897
5904 5904 5904 5904 5904 5904 5904 5904 5905 5905 5905 5905 5905 5905 5905 5905 5906 5906 5906 5906 5906 5905 5905 5904 5904 5903 5903 5903 5902 5902 5901 5901 5901 5900 5900 5899 5899 5899 5898 5898 5898 5898 5897
5901 5901 5902 5902 5902 5902 5902 5902 5902 5902 5903 5903 5903 5903 5903 5903 5903 5904 5904 5904 5904 5903 5903 5902 5902 5901 5901 5901 5901 5900 5900 5900 5900 5899 5899 5899 5898 5898 5898 5898 5898 5897 5897
5899 5899 5899 5900 5900 5900 5900 5900 5900 5900 5900 5900 5901 5901 5901 5901 5901 5901 5901 5901 5901 5901 5901 5900 5900 5899 5899 5899 5899 5899 5899 5899 5899 5898 5898 5898 5897 5897 5897 5897 5897 5897 5897
5895 5896 5896 5897 5897 5897 5897 5897 5897 5897 5897 5898 5898 5898 5898 5898 5898 5898 5898 5899 5899 5899 5898 5898 5897 5897 5897 5897 5897 5897 5897 5897 5897 5897 5897 5896 5896 5896 5896 5896 5896 5897 5896
5892 5893 5893 5894 5894 5894 5894 5894 5894 5894 5895 5895 5895 5895 5895 5895 5895 5895 5895 5895 5896 5896 5895 5895 5895 5894 5894 5894 5894 5895 5895 5895 5895 5895 5895 5895 5894 5894 5895 5895 5895 5895 5895
5888 5889 5890 5891 5891 5891 5891 5891 5892 5891 5892 5892 5892 5892 5892 5892 5892 5892 5892 5892 5892 5892 5892 5892 5891 5891 5891 5891 5891 5892 5892 5893 5893 5893 5893 5893 5893 5893 5893 5893 5893 5894 5894
5885 5886 5887 5888 5888 5888 5888 5888 5888 5888 5888 5888 5888 5888 5888 5888 5888 5888 5888 5888 5888 5888 5888 5888 5888 5888 5888 5888 5888 5888 5889 5889 5890 5890 5890 5890 5890 5890 5891 5891 5891 5892 5892
5881 5882 5883 5884 5885 5885 5884 5884 5884 5884 5884 5884 5884 5884 5885 5885 5885 5884 5884 5884 5884 5884 5884 5884 5884 5884 5884 5884 5884 5884 5885 5886 5886 5886 5887 5887 5887 5887 5888 5888 5889 5889 5890
5876 5878 5880 5880 5880 5881 5881 5880 5880 5880 5881 5881 5881 5880 5881 5881 5880 5880 5880 5879 5879 5879 5879 5880 5880 5880 5880 5880 5880 5880 5881 5882 5882 5882 5883 5883 5884 5884 5884 5885 5886 5886 5887
5873 5874 5876 5875 5876 5876 5876 5876 5875 5876 5876 5876 5877 5876 5876 5876 5876 5875 5875 5875 5875 5875 5875 5875 5875 5875 5875 5876 5876 5876 5876 5877 5877 5878 5879 5879 5880 5880 5880 5881 5882 5883 5883
5870 5870 5871 5871 5871 5871 5871 5872 5872 5872 5872 5872 5872 5872 5871 5871 5870 5871 5870 5870 5870 5870 5870 5870 5871 5871 5871 5871 5871 5871 5871 5872 5873 5874 5874 5875 5876 5876 5877 5877 5878 5879 5879
5868 5867 5867 5866 5865 5867 5868 5868 5868 5868 5868 5868 5867 5866 5866 5866 5865 5866 5865 5865 5865 5865 5865 5865 5865 5866 5866 5866 5866 5866 5866 5866 5868 5869 5870 5870 5871 5872 5872 5873 5874 5874 5875
5863 5863 5863 5862 5862 5863 5864 5864 5863 5863 5863 5862 5861 5861 5861 5861 5860 5860 5860 5860 5860 5860 5860 5860 5860 5861 5861 5861 5861 5861 5861 5861 5862 5863 5865 5866 5866 5867 5867 5868 5869 5870 5870
5858 5859 5860 5860 5859 5859 5858 5858 5858 5858 5858 5857 5856 5856 5855 5855 5855 5855 5855 5855 5854 5854 5854 5855 5855 5855 5855 5856 5855 5856 5856 5856 5857 5858 5859 5860 5860 5861 5862 5863 5864 5865 5865
5856 5856 5856 5856 5855 5854 5854 5853 5853 5853 5852 5850 5850 5850 5849 5849 5849 5849 5849 5848 5848 5848 5848 5848 5849 5849 5850 5850 5850 5850 5850 5850 5851 5851 5852 5853 5854 5855 5856 5857 5858 5859 5860
5853 5852 5852 5852 5851 5850 5850 5849 5848 5848 5846 5845 5844 5843 5843 5843 5843 5843 5842 5842 5842 5842 5842 5842 5842 5843 5843 5843 5843 5844 5844 5844 5844 5845 5846 5847 5848 5849 5850 5851 5852 5853 5854
5849 5849 5848 5847 5846 5846 5846 5845 5844 5843 5841 5840 5839 5838 5837 5837 5837 5837 5836 5835 5835 5835 5834 5835 5835 5835 5836 5836 5837 5837 5837 5837 5837 5838 5839 5840 5842 5843 5844 5845 5846 5847 5848
5846 5845 5843 5842 5842 5841 5840 5839 5838 5837 5835 5834 5833 5832 5831 5831 5830 5830 5830 5829 5828 5828 5827 5827 5828 5828 5829 5829 5829 5830 5830 5831 5831 5831 5832 5834 5835 5836 5837 5838 5840 5841 5842
5842 5840 5839 5838 5837 5836 5835 5833 5832 5831 5830 5828 5826 5825 5824 5823 5823 5822 5822 5822 5821 5820 5820 5820 5820 5820 5821 5821 5822 5822 5823 5823 5824 5824 5825 5826 5828 5829 5830 5832 5833 5834 5835
5837 5836 5835 5833 5832 5830 5829 5827 5826 5824 5823 5821 5820 5818 5817 5816 5815 5815 5814 5814 5813 5813 5812 5812 5813 5813 5813 5814 5814 5815 5816 5816 5816 5817 5818 5819 5820 5822 5823 5825 5826 5827 5828
5832 5831 5829 5827 5826 5824 5822 5821 5819 5817 5816 5814 5813 5811 5810 5808 5808 5807 5806 5806 5805 5805 5805 5805 5805 5805 5806 5806 5806 5807 5808 5808 5809 5810 5811 5812 5813 5815 5816 5817 5819 5820 5821
5827 5825 5823 5821 5819 5818 5816 5814 5812 5810 5809 5807 5805 5804 5802 5801 5800 5799 5798 5798 5797 5797 5797 5797 5797 5797 5798 5798 5799 5800 5800 5801 5802 5802 5803 5805 5806 5807 5808 5809 5811 5812 5813